Weather in Nikola

Russia / Vologda Oblast     58°32′35″N   36°23′19″E
temp.,
°C
wind,
m/s
gust,
m/s
humid.,
%
clouds,
%
prec.,
mm/h
press.,
hPa
HPBL,
m
13 june, sun
sun1300:00+13s2298100 1.7 100526
03:00+12s229823 1.7 100540
06:00+14s24950 0.0 1005151
09:00+19s34705 0.0 1005661
12:00+23s34495 0.2 10051786
15:00+25s343986 0.2 10042585
18:00+20s1268100 0.0 100546
21:00+18s2575100 0.0 1006106
14 june, mon
mon1400:00+17s2473100 0.0 100787
03:00+17ssw2472100 0.0 100886
06:00+17sw2577100 0.0 1010143
09:00+22w24607 0.0 1011744
12:00+23wsw3563100 0.8 10121482
15:00+21wnw357964 3.1 1013995
18:00+22nw445817 0.2 10131256
21:00+17wnw227999 0.2 101411
15 june, tue
tue1500:00+14ene229236 0.0 101517
03:00+12ene119586 0.0 101410
06:00+15sse128814 0.0 1014141
09:00+20sw34621 0.0 1013842
12:00+23sw4552100 0.0 10111765
15:00+22ssw3555100 0.0 10101294
18:00+21w4758100 0.0 1009622
21:00+17wsw2278100 0.0 100937
16 june, wed
wed1600:00+13nw2581100 0.0 101094
03:00+13wnw3896100 0.5 1011360
06:00+14nw369721 2.3 1012311
09:00+17nw46624 2.4 1013972
12:00+21nw58335 0.1 10132739
15:00+21nw57315 0.1 10142733
18:00+20nnw57395 0.0 10161973
21:00+13nnw39585 0.0 1018209
17 june, thu
thu1700:00+10nw28655 0.0 1020153
03:00+8nw27715 0.0 1022138
06:00+11nw28670 0.0 1023225
09:00+18nw47420 0.0 10241062
12:00+21nnw45345 0.0 10251809
15:00+23nnw353394 0.0 10242100
18:00+23nw24436 0.0 10241896
21:00+16w22675 0.0 102512